Overview Statistics Trail Chart Weather Telemetry Raw packets
 

This is the latest recevied weather packets stored in our database for station/object SV9TNF-51. If no packets are shown the sender has not sent any weather packets the latest 10 day(s).

<< 74 75 76 77 78 79 80 >>
Time Temp. Humidity Pressure Rain* Wind** Luminosity Snow
1788131852 24.44° C 65% 1013.2 hPa 0 mm 1.79 m/s, 345° - -
1788131552 24.44° C 67% 1013.2 hPa 0 mm 1.79 m/s, 85° - -
1788131252 24.44° C 67% 1013.2 hPa 0 mm 4.02 m/s, 28° - -
1788130952 24.44° C 68% 1013.2 hPa 0 mm 2.24 m/s, 348° - -
1788130667 24.44° C 67% 1013.2 hPa 0 mm 4.02 m/s, 15° - -
1788130352 24.44° C 67% 1013.2 hPa 0 mm 4.02 m/s, 328° - -
1788130052 24.44° C 67% 1013.2 hPa 0 mm 5.81 m/s, 327° - -
1788129751 24.44° C 65% 1013.2 hPa 0 mm 4.92 m/s, 357° - -
1788129452 24.44° C 64% 1013.2 hPa 0 mm 4.92 m/s, 324° - -
1788129152 24.44° C 67% 1013.2 hPa 0 mm 4.47 m/s, 324° - -
1788128851 24.44° C 67% 1013.2 hPa 0 mm 4.92 m/s, 343° - -
1788128551 24.44° C 66% 1013.2 hPa 0 mm 4.47 m/s, 334° - -
1788128251 24.44° C 66% 1013.2 hPa 0 mm 4.02 m/s, 331° - -
1788127951 24.44° C 66% 1013.2 hPa 0 mm 3.13 m/s, 337° - -
1788127651 24.44° C 66% 1013.6 hPa 0 mm 4.02 m/s, 321° - -
1788127351 24.44° C 67% 1013.6 hPa 0 mm 4.47 m/s, 330° - -
1788127051 24.44° C 67% 1013.6 hPa 0 mm 5.36 m/s, 312° - -
1788126750 25° C 67% 1013.6 hPa 0 mm 5.81 m/s, 346° - -
1788126451 25° C 66% 1013.6 hPa 0 mm 2.68 m/s, 79° - -
1788126150 25° C 66% 1013.6 hPa 0 mm 6.26 m/s, 338° - -
1788125850 25° C 66% 1013.6 hPa 0 mm 4.92 m/s, 330° - -
1788125550 25° C 66% 1013.6 hPa 0 mm 5.81 m/s, 343° - -
1788125251 25° C 66% 1013.6 hPa 0 mm 4.92 m/s, 320° - -
1788124950 24.44° C 66% 1013.6 hPa 0 mm 5.81 m/s, 319° - -
1788124650 24.44° C 65% 1013.6 hPa 0 mm 3.13 m/s, 338° - -

* Rain latest hour (hover to see other rain measurements)
** Current wind speed in m/s (hover to see current wind gust speed)